Date String (YYYY-MM-DD hh:mm:ss) UTC,Instrument flags,Ambient pressure (hPa),Sample flow (lpm),Bypass flow (lpm),Sample temperature (°C),Ambient temperature (°C),ASC tube jacket temperature (°C),LED temperature (°C),Box temperature (°C),Sample RH (%),Span deviation,Mass concentration (μg/m³),Mass concentration (μg/m³),Mass concentration (μg/m³)
DateTimeUTC,F1_M11,P_M11,Q1_M11,Q2_M11,T1_M11,T2_M11,T3_M11,T4_M11,T5_M11,U1_M11,ZSPAN_M11,X0_M11,X2_M11,X1_M11
2022-05-09 00:00:00,,0807.0,5.00,0.00,29.9,29.0,00.0,38.7,31.8,17.2,0000.0,0031.98,0009.60,0004.02
2022-05-09 00:01:00,,0807.0,5.00,0.00,30.0,29.0,00.0,38.7,31.8,16.7,0000.0,0031.24,0009.61,0004.02
2022-05-09 00:02:00,,0807.0,5.01,0.00,29.9,27.9,00.0,38.7,31.6,17.0,0000.0,0031.03,0009.66,0004.03
2022-05-09 00:03:00,,0807.0,5.00,0.00,29.8,25.6,00.0,38.7,31.1,17.1,0000.0,0031.79,0009.59,0004.03
2022-05-09 00:04:00,,0806.9,4.99,0.00,29.6,25.1,00.0,38.7,30.9,17.3,0000.0,0031.97,0009.71,0004.05
2022-05-09 00:05:00,,0806.8,5.00,0.00,29.5,25.6,00.0,38.6,31.0,17.6,0000.0,0032.16,0009.77,0004.06
2022-05-09 00:06:00,,0806.8,5.00,0.00,29.5,26.1,00.0,38.5,31.1,17.6,0000.0,0031.89,0009.72,0004.06
2022-05-09 00:07:00,,0806.8,5.01,0.00,29.5,26.6,00.0,38.5,31.2,17.4,0000.0,0031.81,0009.74,0004.04
2022-05-09 00:08:00,,0806.7,5.00,0.00,29.5,27.0,00.0,38.5,31.2,17.4,0000.0,0030.91,0009.76,0004.05
2022-05-09 00:09:00,,0806.7,5.00,0.00,29.5,27.3,00.0,38.5,31.3,17.4,0000.0,0030.97,0009.72,0004.05
2022-05-09 00:10:00,,0806.7,4.99,0.00,29.5,27.6,00.0,38.5,31.3,17.4,0000.0,0030.44,0009.64,0004.05
2022-05-09 00:11:00,,0806.7,5.00,0.00,29.6,27.8,00.0,38.5,31.4,17.4,0000.0,0030.48,0009.69,0004.04
2022-05-09 00:12:00,,0806.7,5.00,0.00,29.6,28.0,00.0,38.5,31.4,17.5,-000.2,0030.30,0009.65,0004.04
2022-05-09 00:13:00,,0806.6,5.00,0.00,29.6,28.2,00.0,38.5,31.4,17.4,-000.2,0031.32,0009.50,0004.03
2022-05-09 00:14:00,,0806.6,5.00,0.00,29.6,28.3,00.0,38.5,31.5,17.2,0000.5,0031.95,0009.62,0004.03
2022-05-09 00:15:00,,0806.5,4.99,0.00,29.7,28.4,00.0,38.5,31.5,17.3,0001.6,0032.84,0009.64,0004.03
2022-05-09 00:16:00,,0806.6,5.01,0.00,29.7,28.5,00.0,38.5,31.5,17.1,0002.1,0033.54,0009.62,0004.01
2022-05-09 00:17:00,,0806.5,5.01,0.00,29.7,28.6,00.0,38.5,31.6,16.6,0001.8,0033.62,0009.60,0004.02
2022-05-09 00:18:00,,0806.4,5.00,0.00,29.7,28.7,00.0,38.6,31.6,16.9,0000.0,0033.28,0009.57,0004.04
2022-05-09 00:19:00,,0806.4,4.99,0.00,29.8,28.7,00.0,38.6,31.7,16.4,0000.0,0033.63,0009.50,0004.03
2022-05-09 00:20:00,,0806.3,5.01,0.00,29.8,28.8,00.0,38.6,31.8,16.2,0000.0,0032.71,0009.48,0004.03
2022-05-09 00:21:00,,0806.3,5.00,0.00,29.8,28.9,00.0,38.6,31.8,16.3,0000.0,0033.15,0009.49,0004.05
2022-05-09 00:22:00,,0806.3,4.98,0.00,29.9,28.9,00.0,38.7,31.8,16.1,0000.0,0032.23,0009.44,0004.04
2022-05-09 00:23:00,,0806.3,5.00,0.00,29.9,29.0,00.0,38.7,31.8,16.6,0000.0,0032.05,0009.50,0004.04
2022-05-09 00:24:00,,0806.4,5.00,0.00,29.9,29.0,00.0,38.7,31.8,16.6,0000.0,0032.18,0009.60,0004.05
2022-05-09 00:25:00,,0806.4,4.99,0.00,29.9,27.6,00.0,38.7,31.5,17.0,0000.0,0030.82,0009.51,0004.05
2022-05-09 00:26:00,,0806.4,4.99,0.00,29.7,25.4,00.0,38.7,30.9,16.9,0000.0,0030.19,0009.45,0004.04
2022-05-09 00:27:00,,0806.3,5.01,0.00,29.6,25.0,00.0,38.6,30.8,17.0,0000.0,0029.64,0009.33,0004.05
2022-05-09 00:28:00,,0806.3,5.00,0.00,29.5,25.5,00.0,38.6,30.9,16.7,0000.0,0029.87,0009.37,0004.06
2022-05-09 00:29:00,,0806.3,4.99,0.00,29.4,26.0,00.0,38.5,31.0,17.0,0000.0,0029.62,0009.32,0004.03
2022-05-09 00:30:00,,0806.3,5.01,0.00,29.4,26.5,00.0,38.5,31.1,17.1,0000.0,0029.30,0009.34,0004.03
2022-05-09 00:31:00,,0806.2,5.01,0.00,29.4,27.0,00.0,38.5,31.2,17.0,0000.0,0029.33,0009.37,0004.02
2022-05-09 00:32:00,,0806.2,4.99,0.00,29.4,27.3,00.0,38.4,31.2,16.6,0000.0,0028.58,0009.46,0004.00
2022-05-09 00:33:00,,0806.2,5.00,0.00,29.5,27.6,00.0,38.4,31.3,16.7,0000.0,0028.71,0009.45,0004.00
2022-05-09 00:34:00,,0806.1,5.02,0.00,29.5,27.8,00.0,38.4,31.3,16.9,0000.0,0028.58,0009.49,0004.00
2022-05-09 00:35:00,,0806.2,4.99,0.00,29.5,28.0,00.0,38.4,31.4,16.9,0000.0,0027.40,0009.42,0004.00
2022-05-09 00:36:00,,0806.1,5.00,0.00,29.5,28.2,00.0,38.5,31.4,16.8,0000.0,0027.75,0009.39,0003.99
2022-05-09 00:37:00,,0806.1,5.00,0.00,29.6,28.3,00.0,38.5,31.4,16.9,0000.0,0028.42,0009.37,0004.00
2022-05-09 00:38:00,,0806.1,4.99,0.00,29.6,28.4,00.0,38.5,31.5,17.2,0000.0,0028.33,0009.41,0004.00
2022-05-09 00:39:00,,0806.2,5.00,0.00,29.7,28.5,00.0,38.5,31.5,17.0,0000.0,0028.39,0009.39,0004.00
2022-05-09 00:40:00,,0806.2,5.01,0.00,29.7,28.6,00.0,38.5,31.6,17.3,0000.0,0029.58,0009.52,0004.02
2022-05-09 00:41:00,,0806.2,4.99,0.00,29.7,28.7,00.0,38.5,31.6,17.2,0000.0,0029.28,0009.53,0004.03
2022-05-09 00:42:00,,0806.2,5.00,0.00,29.8,28.8,00.0,38.6,31.6,16.5,0000.0,0030.43,0009.60,0004.05
2022-05-09 00:43:00,,0806.1,5.00,0.00,29.8,28.8,00.0,38.6,31.7,16.6,0000.0,0031.29,0009.59,0004.07
2022-05-09 00:44:00,,0806.1,5.00,0.00,29.8,28.9,00.0,38.6,31.7,16.9,0000.0,0032.47,0009.73,0004.09
2022-05-09 00:45:00,,0806.1,5.00,0.00,29.9,29.0,00.0,38.6,31.8,16.7,0000.0,0033.41,0009.73,0004.11
2022-05-09 00:46:00,,0806.1,5.00,0.00,29.9,29.0,00.0,38.7,31.8,16.7,0000.0,0033.94,0009.90,0004.14
2022-05-09 00:47:00,,0806.1,5.01,0.00,29.9,28.5,00.0,38.7,31.7,16.8,0000.0,0034.07,0009.93,0004.16
2022-05-09 00:48:00,,0806.1,4.99,0.00,29.8,26.4,00.0,38.7,31.2,17.1,0000.0,0034.06,0010.03,0004.18
2022-05-09 00:49:00,,0806.2,5.01,0.00,29.7,26.1,00.0,38.7,31.1,17.5,-003.5,0034.39,0009.99,0004.18
2022-05-09 00:50:00,,0806.2,5.00,0.00,29.6,26.4,00.0,38.6,31.2,16.9,-000.1,0034.21,0009.97,0004.19
2022-05-09 00:51:00,,0806.2,5.01,0.00,29.6,26.8,00.0,38.6,31.3,17.1,0000.0,0034.80,0009.90,0004.19
2022-05-09 00:52:00,,0806.2,4.99,0.00,29.6,27.2,00.0,38.6,31.3,17.2,0000.0,0035.60,0010.03,0004.20
2022-05-09 00:53:00,,0806.1,5.01,0.00,29.6,27.5,00.0,38.6,31.4,17.3,0000.0,0035.46,0010.11,0004.21
2022-05-09 00:54:00,,0806.1,5.00,0.00,29.6,27.8,00.0,38.6,31.4,17.3,0000.0,0034.97,0010.20,0004.21
2022-05-09 00:55:00,,0806.1,4.99,0.00,29.7,28.1,00.0,38.6,31.5,17.4,0000.0,0034.18,0010.12,0004.20
2022-05-09 00:56:00,,0806.1,5.01,0.00,29.7,28.2,00.0,38.6,31.5,17.0,0000.0,0033.15,0010.16,0004.20
2022-05-09 00:57:00,,0806.2,5.01,0.00,29.7,28.4,00.0,38.6,31.6,16.8,0000.0,0032.37,0010.17,0004.19
2022-05-09 00:58:00,,0806.2,5.00,0.00,29.8,28.5,00.0,38.6,31.6,16.9,0000.0,0032.77,0010.26,0004.18
2022-05-09 00:59:00,,0806.1,4.99,0.00,29.8,28.6,00.0,38.6,31.7,17.1,0000.0,0033.07,0010.31,0004.17
